SENTINEL-1B (41456 NORAD) Tracking and Keplerian Element Data

This shows tracking and keplerian element data for the satellite.

Feedback or suggestion? Click here.




ElementValue
Catalog41456
NameSENTINEL-1B
Epoch Orbit33880
Epoch Day248.09863402
Epoch Year2022
RAAN254.3558
Inclination98.1833
Eccentricity0.0001281
Argument of Perigee98.3619
Mean Anonmoly261.7727
Mean Motion14.59201222
Decay Rate1.58E-06
L11 41456U 16025A 22248.09863402 .00000158 00000+0 43278-4 0 9995
L22 41456 98.1833 254.3558 0001281 98.3619 261.7727 14.59201222338806



Live tracking and technical data element details for SENTINEL-1B (NORAD 41456). SENTINEL-1B can be tracked NOW for your location showing map with azimuth and elevation plus other details from your city location.







IsCatalogInMostPopularTable: catalog: 41456, numindb: 631
Update: records affected: 1



GetName: 41456 SENTINEL-1B

Hit Count: updated at: Sun, 23 Jun 2024 01:34:18 GMT